Regional Weather Roundup
Issued by NWS Spokane, WA

Home | Current Version | Previous Version | Text Only | Print | Product List | Glossary On
Versions: 1 2 3 4 5 6 7 8 9 10 11 12 13 14 15 16 17 18 19 20 21 22 23 24 25 26 27 28 29 30 31 32 33 34 35 36 37 38 39 40 41 42 43 44 45 46 47 48 49 50
000
NZUS01 KOTX 310500
RWROTX
EASTERN WASHINGTON/NORTHERN IDAHO ROUNDUP
NATIONAL WEATHER SERVICE, SPOKANE WA
1000 PM PDT SAT AUG 30 2014

Note: "fair" indicated few or no clouds below 12,000 feet with no
significant weather and/or obstructions to visibility.

...NORTHEAST WASHINGTON AND NORTHERN IDAHO PANHANDLE...

CITY           SKY/WX    TMP DP  RH WIND       PRES   REMARKS
SPOKANE INTL   MOCLDY    60  51  72 S13       29.84S
SPOKANE DOWNTO PTCLDY    64  50  60 SW8       29.84R
COEUR D ALENE  CLOUDY    63  48  59 SW10      29.84R
DEER PARK      PTCLDY    61  45  55 S6        29.82F

...SOUTHEAST WASHINGTON AND SOUTHERN IDAHO PANHANDLE...

CITY           SKY/WX    TMP DP  RH WIND       PRES   REMARKS
WALLA WALLA    MOCLDY    66  51  58 S12       29.90R
PULLMAN/MOSCOW MOCLDY    59  47  64 W13       29.91S
LOWELL           N/A     60  58  92 CALM      29.92S

...COLUMBIA BASIN...

CITY           SKY/WX    TMP DP  RH WIND       PRES   REMARKS
EPHRATA        CLOUDY    71  47  42 W12       29.80S
MOSES LAKE     CLOUDY    70  50  49 SW7       29.81S
TRI CITIES     CLEAR     66  56  70 SW16      29.84R
HERMISTON      CLEAR     63  52  67 SW10      29.88R
PENDLETON      PTCLDY    60  50  69 SW8       29.91R

...EAST SLOPES CASCADES...

CITY           SKY/WX    TMP DP  RH WIND       PRES   REMARKS
THE DALLES     CLEAR     65  51  60 W13       29.94R
YAKIMA         CLEAR     63  47  55 W7        29.88R
WENATCHEE      PTCLDY    68  48  48 W12       29.83R
OMAK           CLOUDY    68  45  43 S3        29.78S

...SOUTHERN BRITISH COLUMBIA...

CITY           SKY/WX    TMP DP  RH WIND       PRES   REMARKS

...WESTERN MONTANA...

CITY           SKY/WX    TMP DP  RH WIND       PRES   REMARKS
MISSOULA       CLOUDY    62  41  46 N6        29.86S

...NEIGHBORING CITIES...

CITY           SKY/WX    TMP DP  RH WIND       PRES   REMARKS
SEATTLE        LGT RAIN  60  57  89 SE6       29.98R FOG



USA.gov is the U.S. government's official web portal to all federal, state and local government web resources and services.